GW2129 Weather Reports


Display with metric or nautical units.
time (UTC)temp
F
wind
direction
speed
MPH
gust
MPH
rain 1hr
in
rain 24hr
in
rain mn
in
humidity
%
barometer
mb
20260905010638 86 99 0.0 1.0 0.00 0.00 0.00 63 1013.1
20260905010134 86 73 0.0 1.0 0.00 0.00 0.00 63 1013.2
20260905005630 86 113 2.0 3.0 0.00 0.00 0.00 62 1013.2
20260905005126 86 47 0.0 3.0 0.00 0.00 0.00 62 1013.0
20260905004625 87 154 2.0 3.0 0.00 0.00 0.00 61 1013.2
20260905004120 86 108 2.0 5.0 0.00 0.00 0.00 61 1013.2
20260905003616 87 83 2.0 3.0 0.00 0.00 0.00 61 1013.0
20260905003112 87 114 3.0 6.0 0.00 0.00 0.00 60 1013.0
20260905002607 87 100 3.0 4.0 0.00 0.00 0.00 60 1012.8
20260905002102 88 116 2.0 5.0 0.00 0.00 0.00 59 1012.9
20260905001556 88 109 1.0 5.0 0.00 0.00 0.00 59 1012.9
20260905001050 88 117 3.0 8.0 0.00 0.00 0.00 59 1012.7
20260905000545 88 98 3.0 7.0 0.00 0.00 0.00 58 1012.6
20260905000042 88 100 4.0 9.0 0.00 0.00 0.00 58 1012.6
20260904235537 89 73 8.0 8.0 0.00 0.00 0.00 58 1012.6
20260904235036 89 114 3.0 10.0 0.00 0.00 0.00 58 1012.4
20260904234537 89 101 6.0 13.0 0.00 0.00 0.00 58 1012.5
20260904234032 90 129 2.0 8.0 0.00 0.00 0.00 59 1012.3
20260904233527 90 106 8.0 10.0 0.00 0.00 0.00 59 1012.5
20260904233024 91 118 6.0 11.0 0.00 0.00 0.00 57 1012.5
20260904232520 93 136 4.0 7.0 0.00 0.00 0.00 45 1012.2
20260904232016 93 137 1.0 5.0 0.00 0.00 0.00 47 1012.6
20260904231512 94 229 0.0 5.0 0.00 0.00 0.00 46 1012.5
20260904231006 94 151 3.0 12.0 0.00 0.00 0.00 47 1012.6
20260904230506 96 283 0.0 5.0 0.00 0.00 0.00 45 1012.6
20260904230001 96 241 0.0 5.0 0.00 0.00 0.00 44 1012.6
20260904225458 96 239 2.0 3.0 0.00 0.00 0.00 46 1012.7
20260904224953 95 281 2.0 5.0 0.00 0.00 0.00 45 1012.8
20260904224449 96 277 3.0 6.0 0.00 0.00 0.00 44 1012.7
20260904223948 95 287 2.0 5.0 0.00 0.00 0.00 46 1012.8
20260904223447 95 192 1.0 4.0 0.00 0.00 0.00 47 1012.7
20260904222943 96 258 2.0 7.0 0.00 0.00 0.00 44 1012.8
20260904222438 95 227 2.0 5.0 0.00 0.00 0.00 44 1012.7
20260904221932 94 138 2.0 5.0 0.00 0.00 0.00 46 1012.6
20260904221427 95 273 2.0 5.0 0.00 0.00 0.00 45 1012.9
20260904220923 96 267 4.0 6.0 0.00 0.00 0.00 42 1012.9
20260904220422 96 219 7.0 7.0 0.00 0.00 0.00 40 1012.9
20260904215917 95 116 0.0 4.0 0.00 0.00 0.00 42 1012.9
20260904215411 94 184 3.0 8.0 0.00 0.00 0.00 42 1012.7
20260904214908 95 312 2.0 6.0 0.00 0.00 0.00 42 1012.9
20260904214404 95 301 2.0 6.0 0.00 0.00 0.00 42 1013.0
20260904213902 93 128 2.0 5.0 0.00 0.00 0.00 42 1013.1
20260904213356 92 110 5.0 5.0 0.00 0.00 0.00 40 1013.3
20260904212853 91 286 2.0 7.0 0.00 0.00 0.00 52 1013.5
20260904212347 92 104 3.0 4.0 0.00 0.00 0.00 51 1013.2
20260904211843 91 257 2.0 4.0 0.00 0.00 0.00 54 1013.3
20260904211337 91 98 4.0 8.0 0.00 0.00 0.00 54 1013.4
20260904210832 91 123 3.0 5.0 0.00 0.00 0.00 56 1013.5
20260904210326 92 180 2.0 5.0 0.00 0.00 0.00 55 1013.7
20260904205822 90 104 2.0 7.0 0.00 0.00 0.00 57 1013.5
20260904205318 90 92 6.0 6.0 0.00 0.00 0.00 57 1013.6
20260904204815 90 147 2.0 5.0 0.00 0.00 0.00 57 1013.9
20260904204310 89 150 2.0 5.0 0.00 0.00 0.00 58 1013.9
20260904203806 89 145 6.0 7.0 0.00 0.00 0.00 59 1013.8
20260904203302 89 174 3.0 4.0 0.00 0.00 0.00 60 1014.0
20260904202758 89 118 1.0 7.0 0.00 0.00 0.00 61 1014.2
20260904202254 90 156 5.0 7.0 0.00 0.00 0.00 60 1013.8
20260904201750 91 124 3.0 4.0 0.00 0.00 0.00 60 1014.0
20260904201249 91 104 0.0 4.0 0.00 0.00 0.00 55 1013.9
20260904200744 91 245 0.0 2.0 0.00 0.00 0.00 57 1014.1
20260904200239 91 301 0.0 3.0 0.00 0.00 0.00 56 1014.1
20260904195738 91 236 0.0 3.0 0.00 0.00 0.00 57 1014.1
20260904195236 91 273 0.0 4.0 0.00 0.00 0.00 56 1014.1
20260904194732 91 301 2.0 3.0 0.00 0.00 0.00 57 1014.2
20260904194231 90 285 0.0 4.0 0.00 0.00 0.00 59 1014.3
20260904193726 90 87 5.0 5.0 0.00 0.00 0.00 61 1014.1
20260904193222 91 130 0.0 3.0 0.00 0.00 0.00 58 1014.4
20260904192717 91 228 3.0 3.0 0.00 0.00 0.00 58 1014.1
20260904192212 92 142 4.0 5.0 0.00 0.00 0.00 56 1014.1
20260904191709 92 134 1.0 4.0 0.00 0.00 0.00 57 1014.3
20260904191205 91 207 1.0 4.0 0.00 0.00 0.00 56 1014.3
20260904190701 92 202 3.0 6.0 0.00 0.00 0.00 55 1014.4
20260904190157 91 151 2.0 5.0 0.00 0.00 0.00 56 1014.6
20260904185653 91 147 2.0 5.0 0.00 0.00 0.00 57 1014.6
20260904185147 90 141 2.0 4.0 0.00 0.00 0.00 59 1014.6
20260904184646 90 150 3.0 5.0 0.00 0.00 0.00 59 1015.0
20260904184142 89 243 0.0 5.0 0.00 0.00 0.00 60 1014.9
20260904183638 90 257 2.0 6.0 0.00 0.00 0.00 60 1014.7
20260904183137 89 166 2.0 5.0 0.00 0.00 0.00 60 1015.1
20260904182632 90 185 0.0 2.0 0.00 0.00 0.00 61 1015.0
20260904182128 89 95 4.0 8.0 0.00 0.00 0.00 61 1014.7
20260904181624 89 236 3.0 4.0 0.00 0.00 0.00 62 1015.1
20260904181118 90 150 2.0 3.0 0.00 0.00 0.00 62 1015.0
20260904180613 90 147 5.0 6.0 0.00 0.00 0.00 61 1015.0
20260904180109 91 214 2.0 5.0 0.00 0.00 0.00 59 1015.1
20260904175608 91 292 0.0 5.0 0.00 0.00 0.00 58 1015.3
20260904175106 91 185 4.0 4.0 0.00 0.00 0.00 57 1015.2
20260904174601 92 315 1.0 6.0 0.00 0.00 0.00 57 1015.3
20260904174058 93 211 3.0 4.0 0.00 0.00 0.00 58 1015.2
20260904173557 92 282 3.0 6.0 0.00 0.00 0.00 60 1015.1
20260904173053 93 207 3.0 6.0 0.00 0.00 0.00 55 1015.4
20260904172549 93 165 3.0 5.0 0.00 0.00 0.00 58 1015.4
20260904172048 90 141 6.0 6.0 0.00 0.00 0.00 64 1015.4
20260904171543 90 206 3.0 5.0 0.00 0.00 0.00 64 1015.3
20260904171038 90 250 3.0 4.0 0.00 0.00 0.00 65 1015.6
20260904165714 91 309 2.0 6.0 0.00 0.00 0.00 66 1015.6
20260904165209 91 309 2.0 6.0 0.00 0.00 0.00 66 1015.6
20260904164703 90 213 1.0 5.0 0.00 0.00 0.00 67 1015.6
20260904164158 91 240 1.0 4.0 0.00 0.00 0.00 65 1015.8
20260904163654 90 180 2.0 3.0 0.00 0.00 0.00 67 1015.8
20260904163150 89 274 2.0 3.0 0.00 0.00 0.00 67 1015.6
20260904162648 89 307 1.0 3.0 0.00 0.00 0.00 70 1015.7
20260904162144 88 245 1.0 4.0 0.00 0.00 0.00 71 1015.7
20260904161639 88 280 2.0 3.0 0.00 0.00 0.00 70 1016.0
20260904161134 87 242 0.0 3.0 0.00 0.00 0.00 73 1015.9
20260904160630 87 248 0.0 3.0 0.00 0.00 0.00 72 1015.8
20260904160125 89 295 2.0 4.0 0.00 0.00 0.00 73 1015.8
20260904155620 88 295 0.0 3.0 0.00 0.00 0.00 73 1016.1
20260904155114 87 257 2.0 3.0 0.00 0.00 0.00 74 1016.0
20260904154608 86 261 2.0 3.0 0.00 0.00 0.00 76 1016.1
20260904154103 85 154 0.0 2.0 0.00 0.00 0.00 77 1015.9
20260904153602 85 59 0.0 2.0 0.00 0.00 0.00 79 1015.8
20260904153059 84 280 0.0 3.0 0.00 0.00 0.00 80 1015.8
20260904152554 84 267 0.0 4.0 0.00 0.00 0.00 81 1015.6
20260904152049 84 359 2.0 2.0 0.00 0.00 0.00 82 1015.7
20260904151544 83 318 1.0 3.0 0.00 0.00 0.00 83 1015.6
20260904151043 83 188 1.0 2.0 0.00 0.00 0.00 83 1015.6
20260904150538 83 223 0.0 3.0 0.00 0.00 0.00 84 1015.4
20260904150033 83 269 3.0 3.0 0.00 0.00 0.00 84 1015.5
20260904145532 82 255 0.0 4.0 0.00 0.00 0.00 85 1015.6
20260904145027 82 276 2.0 3.0 0.00 0.00 0.00 85 1015.4
20260904144523 82 273 1.0 3.0 0.00 0.00 0.00 86 1015.9
20260904144020 82 312 0.0 4.0 0.00 0.00 0.00 87 1015.6
20260904143515 82 232 0.0 1.0 0.00 0.00 0.00 87 1015.5
20260904143012 82 239 2.0 3.0 0.00 0.00 0.00 87 1015.5
20260904142508 82 206 0.0 2.0 0.00 0.00 0.00 88 1015.5
20260904142008 81 142 0.0 2.0 0.00 0.00 0.00 89 1015.5
20260904141503 81 206 0.0 3.0 0.00 0.00 0.00 90 1015.5
20260904140958 80 141 2.0 3.0 0.00 0.00 0.00 90 1015.3
20260904140453 80 168 1.0 4.0 0.00 0.00 0.00 91 1015.5
20260904135951 80 184 1.0 4.0 0.00 0.00 0.00 91 1015.4
20260904135446 80 127 3.0 4.0 0.00 0.00 0.00 91 1015.3
20260904134943 80 153 1.0 2.0 0.00 0.00 0.00 92 1015.4
20260904134442 80 323 0.0 2.0 0.00 0.00 0.00 92 1015.2
20260904133937 79 263 0.0 2.0 0.00 0.00 0.00 92 1015.3
20260904133432 79 186 1.0 2.0 0.00 0.00 0.00 92 1015.3
20260904132928 79 191 0.0 2.0 0.00 0.00 0.00 93 1015.2
20260904132423 79 89 0.0 2.0 0.00 0.00 0.00 93 1015.1
20260904131922 79 180 5.0 5.0 0.00 0.00 0.00 93 1014.7
20260904131417 79 215 2.0 3.0 0.00 0.00 0.00 93 1014.7
20260904130913 79 218 0.0 2.0 0.00 0.00 0.00 94 1014.7
20260904130412 79 276 0.0 1.0 0.00 0.00 0.00 94 1014.7
20260904125907 78 144 3.0 4.0 0.00 0.00 0.00 94 1014.7
20260904125404 78 205 3.0 4.0 0.00 0.00 0.00 94 1014.6
20260904124903 78 269 0.0 3.0 0.00 0.00 0.00 94 1014.5
20260904124359 78 238 1.0 3.0 0.00 0.00 0.00 94 1014.6
20260904123854 78 93 2.0 3.0 0.00 0.00 0.00 94 1014.5
20260904123349 78 274 2.0 2.0 0.00 0.00 0.00 93 1014.6
20260904122844 78 10 0.0 2.0 0.00 0.00 0.00 93 1014.6
20260904122338 78 320 2.0 2.0 0.00 0.00 0.00 93 1014.7
20260904121833 78 86 1.0 5.0 0.00 0.00 0.00 93 1014.5
20260904121330 78 145 2.0 3.0 0.00 0.00 0.00 93 1014.6
20260904120826 78 147 1.0 3.0 0.00 0.00 0.00 93 1014.3
20260904120321 78 271 0.0 2.0 0.00 0.00 0.00 93 1014.4
20260904115816 78 136 2.0 3.0 0.00 0.00 0.00 93 1014.4
20260904115311 78 166 0.0 2.0 0.00 0.00 0.00 93 1014.3
20260904114811 78 124 2.0 3.0 0.00 0.00 0.00 93 1014.3
20260904114306 78 148 2.0 4.0 0.00 0.00 0.00 92 1014.2
20260904113801 78 114 1.0 3.0 0.00 0.00 0.00 92 1014.2
20260904113300 78 145 3.0 3.0 0.00 0.00 0.00 92 1014.1
20260904112755 78 210 1.0 3.0 0.00 0.00 0.00 92 1014.0
20260904112251 78 114 1.0 4.0 0.00 0.00 0.00 92 1014.2
20260904111747 78 173 2.0 6.0 0.00 0.00 0.00 92 1014.2
20260904111242 78 260 0.0 1.0 0.00 0.00 0.00 92 1013.9
20260904110738 78 302 0.0 2.0 0.00 0.00 0.00 92 1013.7
20260904110237 78 195 3.0 4.0 0.00 0.00 0.00 92 1013.9
20260904105732 78 272 2.0 3.0 0.00 0.00 0.00 92 1013.9
20260904105227 78 308 1.0 2.0 0.00 0.00 0.00 92 1013.8
20260904104722 78 131 1.0 5.0 0.00 0.00 0.00 92 1013.8
20260904104217 78 191 1.0 2.0 0.00 0.00 0.00 92 1013.7
20260904103715 78 256 0.0 2.0 0.00 0.00 0.00 92 1014.1
20260904103209 79 167 0.0 3.0 0.00 0.00 0.00 92 1014.1
20260904102705 79 103 0.0 3.0 0.00 0.00 0.00 91 1014.0
20260904102200 79 123 0.0 2.0 0.00 0.00 0.00 92 1013.9
20260904101657 78 107 0.0 3.0 0.00 0.00 0.00 92 1013.8
20260904101152 78 257 0.0 1.0 0.00 0.00 0.00 92 1013.8
20260904100648 78 218 0.0 0.0 0.00 0.00 0.00 92 1013.9
20260904100143 78 224 0.0 1.0 0.00 0.00 0.00 93 1013.9
20260904095643 78 129 0.0 1.0 0.00 0.00 0.00 93 1013.8
20260904095137 78 284 0.0 0.0 0.00 0.00 0.00 93 1013.7
20260904094632 78 269 0.0 1.0 0.00 0.00 0.00 93 1013.8
20260904094127 78 284 0.0 1.0 0.00 0.00 0.00 93 1013.8
20260904093624 78 278 1.0 2.0 0.00 0.00 0.00 93 1013.7
20260904093124 78 256 0.0 0.0 0.00 0.00 0.00 93 1013.6
20260904092620 78 284 1.0 1.0 0.00 0.00 0.00 93 1013.6
20260904092116 78 250 1.0 1.0 0.00 0.00 0.00 92 1013.5
20260904091612 78 236 2.0 2.0 0.00 0.00 0.00 93 1013.6
20260904091111 78 352 0.0 1.0 0.00 0.00 0.00 92 1013.7
20260904090607 78 147 0.0 1.0 0.00 0.00 0.00 92 1013.7
20260904085602 78 217 0.0 0.0 0.00 0.00 0.00 92 1013.8
20260904085057 78 230 0.0 2.0 0.00 0.00 0.00 92 1013.5
20260904084553 78 281 0.0 2.0 0.00 0.00 0.00 92 1013.4
20260904084049 78 242 0.0 2.0 0.00 0.00 0.00 91 1013.6
20260904083544 78 272 1.0 2.0 0.00 0.00 0.00 91 1013.7
20260904083040 78 307 1.0 2.0 0.00 0.00 0.00 91 1013.6
20260904082535 78 269 0.0 1.0 0.00 0.00 0.00 91 1013.6
20260904082031 78 230 0.0 0.0 0.00 0.00 0.00 90 1013.6
20260904081526 79 312 0.0 3.0 0.00 0.00 0.00 90 1013.6
20260904081021 79 284 0.0 2.0 0.00 0.00 0.00 90 1013.6
20260904080516 79 283 1.0 2.0 0.00 0.00 0.00 90 1013.7
20260904080013 79 304 0.0 2.0 0.00 0.00 0.00 89 1013.8
20260904075508 79 224 0.0 2.0 0.00 0.00 0.00 89 1013.8
20260904075003 79 249 0.0 2.0 0.00 0.00 0.00 89 1013.9
20260904074457 79 236 0.0 2.0 0.00 0.00 0.00 89 1013.9
20260904073952 79 284 0.0 2.0 0.00 0.00 0.00 89 1013.9
20260904073447 79 316 1.0 1.0 0.00 0.00 0.00 88 1013.8
20260904072943 80 256 1.0 3.0 0.00 0.00 0.00 88 1014.0
20260904072439 80 215 2.0 4.0 0.00 0.00 0.00 88 1013.9
20260904071938 80 228 1.0 3.0 0.00 0.00 0.00 88 1014.1
20260904071435 80 315 0.0 2.0 0.00 0.00 0.00 87 1014.2
20260904070929 80 285 1.0 4.0 0.00 0.00 0.00 87 1014.3
20260904070428 80 232 2.0 3.0 0.00 0.00 0.00 87 1014.2
20260904065922 80 343 1.0 2.0 0.00 0.00 0.00 87 1014.1
20260904065419 80 261 1.0 4.0 0.00 0.00 0.00 87 1013.9
20260904064919 80 333 0.0 2.0 0.00 0.00 0.00 86 1014.2
20260904064415 80 289 1.0 3.0 0.00 0.00 0.00 86 1014.2
20260904063910 80 240 3.0 5.0 0.00 0.00 0.00 86 1014.3
20260904063407 80 282 0.0 3.0 0.00 0.00 0.00 86 1014.2
20260904062901 80 228 0.0 4.0 0.00 0.00 0.00 85 1014.2
20260904062357 80 249 0.0 3.0 0.00 0.00 0.00 85 1014.6
20260904061853 80 190 3.0 3.0 0.00 0.00 0.00 85 1014.3
20260904061349 80 104 0.0 4.0 0.00 0.00 0.00 85 1014.2
20260904060845 80 62 2.0 5.0 0.00 0.00 0.00 84 1014.3
20260904060341 80 201 3.0 4.0 0.00 0.00 0.00 84 1014.1
20260904055835 80 325 1.0 4.0 0.00 0.00 0.00 84 1014.4
20260904055331 80 209 3.0 3.0 0.00 0.00 0.00 84 1014.2
20260904054827 80 338 1.0 4.0 0.00 0.00 0.00 84 1014.3
20260904054323 80 228 2.0 3.0 0.00 0.00 0.00 84 1014.3
20260904053818 80 292 2.0 3.0 0.00 0.00 0.00 84 1014.4
20260904053317 80 230 0.0 4.0 0.00 0.00 0.00 84 1014.4
20260904052813 80 304 0.0 3.0 0.00 0.00 0.00 84 1014.3
20260904052310 80 225 3.0 4.0 0.00 0.00 0.00 84 1014.3
20260904051806 81 0 0.0 2.0 0.00 0.00 0.00 84 1014.4
20260904051301 81 193 0.0 5.0 0.00 0.00 0.00 83 1014.2
20260904050756 81 204 2.0 4.0 0.00 0.00 0.00 83 1014.1
20260904050253 81 238 2.0 3.0 0.00 0.00 0.00 83 1014.4
20260904045747 81 353 0.0 5.0 0.00 0.00 0.00 82 1014.0
20260904045241 81 306 2.0 5.0 0.00 0.00 0.00 82 1014.3
20260904044736 81 273 1.0 4.0 0.00 0.00 0.00 81 1014.2
20260904044233 81 262 0.0 3.0 0.00 0.00 0.00 81 1014.2
20260904043729 82 234 3.0 7.0 0.00 0.00 0.00 80 1014.1
20260904043225 82 233 1.0 4.0 0.00 0.00 0.00 79 1014.2
20260904042720 82 197 3.0 4.0 0.00 0.00 0.00 78 1014.1
20260904042217 82 214 1.0 6.0 0.00 0.00 0.00 77 1014.0
20260904041716 82 119 2.0 5.0 0.00 0.00 0.00 76 1014.1
20260904041212 82 162 2.0 4.0 0.00 0.00 0.00 76 1013.9
20260904040708 82 220 9.0 10.0 0.00 0.00 0.00 75 1013.9
20260904040204 82 302 1.0 3.0 0.00 0.00 0.00 74 1013.7
20260904035659 83 198 1.0 5.0 0.00 0.00 0.00 74 1013.7
20260904035154 83 261 0.0 5.0 0.00 0.00 0.00 73 1014.0
20260904034653 83 225 0.0 3.0 0.00 0.00 0.00 72 1013.9
20260904034149 83 162 0.0 4.0 0.00 0.00 0.00 72 1013.5
20260904033645 83 179 0.0 4.0 0.00 0.00 0.00 72 1013.5
20260904033142 83 120 0.0 5.0 0.00 0.00 0.00 72 1013.6
20260904032637 83 268 0.0 2.0 0.00 0.00 0.00 71 1013.6
20260904032136 84 107 0.0 3.0 0.00 0.00 0.00 71 1013.6
20260904031635 84 228 0.0 3.0 0.00 0.00 0.00 71 1013.6
20260904031132 84 151 0.0 3.0 0.00 0.00 0.00 70 1013.4
20260904030627 84 17 2.0 2.0 0.00 0.00 0.00 70 1013.5
20260904030123 84 142 1.0 3.0 0.00 0.00 0.00 70 1013.4
20260904025618 84 134 0.0 3.0 0.00 0.00 0.00 70 1013.2
20260904025113 84 107 2.0 3.0 0.00 0.00 0.00 70 1013.1
20260904024608 84 141 3.0 3.0 0.00 0.00 0.00 70 1013.1
20260904024104 85 126 2.0 4.0 0.00 0.00 0.00 69 1013.0
20260904023600 84 162 0.0 4.0 0.00 0.00 0.00 70 1012.9
20260904023055 85 113 2.0 6.0 0.00 0.00 0.00 70 1012.9
20260904022550 85 155 2.0 4.0 0.00 0.00 0.00 69 1012.8
20260904022047 85 355 2.0 3.0 0.00 0.00 0.00 69 1012.9
20260904021542 85 103 2.0 5.0 0.00 0.00 0.00 69 1012.7
20260904021037 85 133 3.0 4.0 0.00 0.00 0.00 69 1012.7
20260904020532 85 153 2.0 5.0 0.00 0.00 0.00 68 1012.7
20260904020027 85 120 2.0 3.0 0.00 0.00 0.00 69 1012.6
20260904015521 86 125 3.0 5.0 0.00 0.00 0.00 68 1012.5
20260904015020 86 136 2.0 5.0 0.00 0.00 0.00 68 1012.3
20260904014514 86 175 2.0 6.0 0.00 0.00 0.00 68 1012.4
20260904014010 86 106 4.0 12.0 0.00 0.00 0.00 68 1012.4
20260904013507 86 132 0.0 6.0 0.00 0.00 0.00 68 1012.5
20260904013003 86 141 4.0 10.0 0.00 0.00 0.00 67 1012.4
20260904012502 86 180 0.0 11.0 0.00 0.00 0.00 67 1012.0
20260904011956 86 101 4.0 7.0 0.00 0.00 0.00 67 1012.2
20260904011451 86 97 9.0 10.0 0.00 0.00 0.00 67 1012.3